Find Starlink 4167

NORAD ID: 53033 Int'l Des: 2022-076 Owner: SPXS Country: US Constellation: starlink operational
LEOCIRCULAR

当前视图

正在加载3D地球...

About Starlink 4167

Starlink 4167 (NORAD 53033) is a starlink constellation satellite (v1.5) launched Jul 7, 2022 by SPXS of US. It operates in LEO, CIRCULAR orbit with a mass of 297.00 kg.

关于 Starlink 4167

正在加载描述...

即将过境

Passes for default location (London). Set your location on the main map for personalized predictions.

高度历史

Loading altitude history...

两行轨道根数

1 53033U 22076AZ 26194.41488608 .00000256 00000-0 34152-4 0 9994
2 53033 53.1585 229.4630 0000931 81.6896 278.4201 15.08831224222105
Epoch: Jul 13, 2026 • Age: 27 hours

当前状态

高度 539.7 km
远地点 / 近地点 N/A
速度 7.59 km/s
星下点 9.30°N, 103.47°E
发射日期 Jul 7, 2022
运行时间 4 years
类型 internet

技术详情

分类 Payload
质量 297.00 kg
干质量 275.00 kg
总质量 297.00 kg
长度 0.20 m
直径 2.80 m
跨度 9.00 m
形状 Box + pan
制造商 SPXS
平台类型 Starlink
阶段状态 In Orbit
所有者/国家 SPXS/US

Most Searched